Regional Weather Roundup
Issued by NWS Boston, MA

Current Version | Previous Version | Text Only | Print | Product List | Glossary On
Versions: 1 2 3 4 5 6 7 8 9 10 11 12 13 14 15 16 17 18 19 20 21 22 23 24 25 26 27 28 29
000 ASUS41 KBOX 302110 RWRBOX REGIONAL WEATHER ROUNDUP NATIONAL WEATHER SERVICE TAUNTON MA 500 PM EDT THU JUN 30 2016 NOTE: "FAIR" INDICATES FEW OR NO CLOUDS BELOW 12,000 FEET WITH NO SIGNIFICANT WEATHER AND/OR OBSTRUCTIONS TO VISIBILITY. THE FOLLOWING OBSERVATION LOCATIONS DO NOT REPORT PRESENT WEATHER...PROVINCETOWN... SMITHFIELD...BLOCK ISLAND...KEENE...AND OXFORD. MAZALL-302200- EASTERN MASSACHUSETTS CITY SKY/WX TMP DP RH WIND PRES REMARKS BOSTON MOSUNNY 75 58 55 E12 29.96S BEVERLY MOSUNNY 76 61 59 SE12 29.96R LAWRENCE MOSUNNY 86 48 26 VRB3 29.97R BEDFORD MOSUNNY 87 46 24 W7 29.94S BLUE HILL N/A 83 51 33 W9 29.97S NORWOOD SUNNY 84 53 34 W5 29.95S MARSHFIELD SUNNY 77 59 53 SE8 29.97S PLYMOUTH MOSUNNY 79 55 43 SE9 29.98S TAUNTON SUNNY 83 59 44 W10 29.95S NEW BEDFORD SUNNY 81 59 47 SW15G23 29.96S $$ MAZALL-302200- CAPE COD AND THE ISLANDS CITY SKY/WX TMP DP RH WIND PRES REMARKS FALMOUTH MOSUNNY 79 57 47 W12 29.99S HYANNIS SUNNY 76 60 57 S8 29.99R CHATHAM SUNNY 73 62 68 VRB6 30.01R PROVINCETOWN SUNNY 80 56 43 VRB7 29.99R NANTUCKET SUNNY 72 63 73 S8 30.01R MARTHAS VNYRD SUNNY 76 61 59 SW13 30.00R $$ MAZALL-302200- CENTRAL AND WESTERN MASSACHUSETTS CITY SKY/WX TMP DP RH WIND PRES REMARKS WORCESTER PTSUNNY 79 48 33 SW12 30.00S FITCHBURG PTSUNNY 87 48 25 W3 29.97S ORANGE SUNNY 82 45 27 CALM 29.98R SPRINGFIELD PTSUNNY 85 51 30 W12 29.95S WESTFIELD MOSUNNY 86 47 25 NW8 29.96F NORTH ADAMS SUNNY 79 49 34 VRB6 29.99S PITTSFIELD MOSUNNY 77 48 35 VRB5 30.00F $$ RIZALL-302200- RHODE ISLAND CITY SKY/WX TMP DP RH WIND PRES REMARKS PROVIDENCE MOSUNNY 80 59 48 S14 29.97S NEWPORT SUNNY 76 59 55 SW10G18 29.98S BLOCK ISLAND SUNNY 76 63 64 SW17 30.00S SMITHFIELD CLOUDY 79 61 53 SE6 29.98S WESTERLY SUNNY 79 58 48 S12 30.00S $$ CTZALL-302200- CONNECTICUT CITY SKY/WX TMP DP RH WIND PRES REMARKS BRADLEY INTL MOSUNNY 84 49 29 VRB3 29.96S HARTFORD SUNNY 87 53 31 W7 29.96S BRIDGEPORT SUNNY 84 55 36 SW12 29.97F DANBURY MOSUNNY 83 52 34 W9 30.00F GROTON SUNNY 80 61 52 SW12 29.98S NEW HAVEN MOSUNNY 81 58 45 SW9 29.98F CHESTER FAIR 81 57 44 SW9 29.99F MERIDEN MOSUNNY 86 51 29 W7 29.97F WILLIMANTIC MOSUNNY 86 51 29 SW6 29.97S OXFORD MOSUNNY 81 52 36 W6 30.03S $$ MEZ002-015-021-024-NHZ003-005-008-011-012-014-VTZ005-008-302200- NORTHERN NEW ENGLAND CITY SKY/WX TMP DP RH WIND PRES REMARKS PORTLAND ME MOSUNNY 75 56 51 S12 29.95R BANGOR ME MOSUNNY 85 55 35 NW7 29.91S CONCORD NH MOSUNNY 84 48 28 CALM 29.95S MANCHESTER NH MOSUNNY 85 47 26 W7 29.94S NASHUA NH PTSUNNY 85 51 31 W5 29.95S PORTSMOUTH NH MOSUNNY 79 55 44 S12 29.94R JAFFREY NH MOSUNNY 82 44 26 VRB7 30.00R KEENE NH SUNNY 82 48 30 NW7 29.98R BURLINGTON VT FAIR 84 48 28 NW7 29.94S MT. WASHINGTON PTSUNNY 52 43 71 W26G35 N/A $$ NYZ052-076-302200- EASTERN NEW YORK CITY SKY/WX TMP DP RH WIND PRES REMARKS ALBANY MOSUNNY 83 50 31 W9G17 29.97F NEW YORK CITY MOSUNNY 86 52 30 VRB7 29.97S $$ ANZALL-302200- MARINE OBSERVATIONS STATION/POSITION TIME TEMP WIND PRES VSBY WAVE AIR SEA DIR/SP/G HT/PER (UTC) (F) (DEG/KT/KT) (MB) (MI) (FT/S) BOSTON BUOY 2050 67 65 140/ 10/ 10 1014.9S 2/ 7 BUZZARDS BAY 2000 70 220/ 13/ 14 1015.9R NANTUCKET SOUND 2050 70 70 210/ 6/ 8 1015.7R 1 MASS BAY-STELLWA 2004 64 65 N/A 1 7/8 3/ 8 ISLE OF SHOALS 2000 68 160/ 19/ 19 1014.0F S OF BLOCK IS 2025 69 N/A 4/ 8 $$ ......................KEY......................... SKY/WX - SKY CONDITION/PRESENT WEATHER TMP - TEMPERATURE IN FAHRENHEIT DWPT - DEWPOINT IN FAHRENHEIT RH - RELATIVE HUMIDITY IN PERCENT WIND - DIRECTION AND SPEED IN MPH PRES - MEAN SEA LEVEL PRESSURE IN INCHES OF HG WCI - WIND CHILL INDEX VSB - VISIBILITY IN MILES HX - HEAT INDEX TC - TEMPERATURE IN CELSIUS VRB - VARIABLE WIND DIRECTION N/A - NOT AVAILABLE

USA.gov is the U.S. government's official web portal to all federal, state and local government web resources and services.